924 
ASUS46 KSEW 201110
RWRWA 

WASHINGTON REGIONAL WEATHER ROUNDUP
NATIONAL WEATHER SERVICE SEATTLE WA
400 AM PDT SUN MAY 20 2018

NOTE:"FAIR" INDICATES FEW OR NO CLOUDS BELOW 12,000 FEET WITH NO 
SIGNIFICANT WEATHER AND/OR OBSTRUCTIONS TO VISIBILITY.

WAZ507-509-555>559-201200-
SEATTLE, TACOMA, EVERETT, AND VICINITY
  
CITY           SKY/WX    TMP DP  RH WIND       PRES   REMARKS
EVERETT        CLOUDY    52  50  93 N5        29.99S                  
BOEING FIELD   CLOUDY    55  49  80 S7        29.99S                  
RENTON         CLOUDY    57  49  74 S7        29.99R                  
SEATAC AIRPORT CLOUDY    55  49  80 S7        30.00R                  
JBLM-MCCHORD   CLOUDY    54  54 100 S3        30.00S                  
PUYALLUP       CLOUDY    54  54 100 CALM      30.00S                  
BREMERTON      CLOUDY    53  50  89 S5        29.99R                  
JBLM-FT LEWIS  CLOUDY    53  53 100 SE3       29.99S                  
TACOMA NARROWS CLOUDY    53  48  83 SW5       30.00R                  
$$
 
WAZ001-503-506-510-514-515-201200-
NORTH INTERIOR
  
CITY           SKY/WX    TMP DP  RH WIND       PRES   REMARKS
BELLINGHAM     CLOUDY    57  50  77 VRB5      29.96R                  
FRIDAY HARBOR  CLOUDY    53  47  79 SW9       29.97R                  
EASTSOUND      CLOUDY    55  50  82 S8        29.94S                  
PORT ANGELES   CLOUDY    52  48  86 W8        29.99S                  
EDIZ HOOK      CLOUDY    52  48  86 W10       29.99R                  
PORT TOWNSEND  CLOUDY    52  50  93 W7        29.99S                  
NAS WHIDBEY    CLOUDY    55  49  80 SW13      30.01S                  
ARLINGTON      CLOUDY    53  51  93 CALM      29.99S                  
BURLINGTON     CLOUDY    54  48  82 S5        29.98S                  
$$
 
WAZ020-022-039-040-504-511-512-201200-
SOUTHWEST INTERIOR
  
CITY           SKY/WX    TMP DP  RH WIND       PRES   REMARKS
SHELTON        MOCLDY    53  49  86 SW10      29.97S                  
OLYMPIA        CLOUDY    54  47  77 SW6       29.99S                  
CHEHALIS       CLOUDY    55  52  88 CALM      30.01S                  
KELSO          CLOUDY    55  49  80 W5        30.02R                  
VANCOUVER      CLOUDY    57  50  77 CALM      30.00R                  
SCAPPOOSE, OR  CLOUDY    54  47  77 NW3       30.00R                  
PORTLAND, OR   CLOUDY    57  49  74 N5        30.00S                  
$$
 
WAZ021-516-517-201200-
WASHINGTON COAST
  
CITY           SKY/WX    TMP DP  RH WIND       PRES   REMARKS
FORKS          CLOUDY    51  48  89 CALM      30.01R                  
HOQUIAM        CLOUDY    54  50  86 W8        30.01S                  
ASTORIA, OR    CLOUDY    52  49  89 SW5       30.02R                  
$$
 
WAZ019-023-024-040-567>569-201200-
CASCADE MOUNTAINS AND COLUMBIA GORGE
  
CITY           SKY/WX    TMP DP  RH WIND       PRES   REMARKS
STAMPEDE PASS  NOT AVBL                                               
TROUTDALE, OR  CLOUDY    57  49  74 CALM      30.00R                  
HOOD RIVER, OR PTSUNNY   55  50  82 CALM      29.94S                  
THE DALLES, OR MOCLDY    62  51  67 NW14      29.90S                  
$$

WAZ026-027-041>044-520-521-201200-
EAST SLOPES
  
CITY           SKY/WX    TMP DP  RH WIND       PRES   REMARKS
OMAK           MOCLDY    50  48  93 NW7       29.93R                  
WENATCHEE      MOCLDY    56  51  84 N7        29.92S                  
ELLENSBURG     MOCLDY    53  49  86 CALM      29.92S                  
YAKIMA         MOCLDY    55  50  83 W5        29.91R                  
SUNNYSIDE ARPT PTSUNNY   50  47  90 CALM      29.89S                  
YAKIMA TC      FAIR      57  47  69 E9        29.89S                  
$$

WAZ028-034-035-201200-
COLUMBIA BASIN
  
CITY           SKY/WX    TMP DP  RH WIND       PRES   REMARKS
EPHRATA        PTCLDY    59  49  69 NW16      29.89S                  
MOSES LAKE     PTCLDY    54  49  83 N5        29.90S                  
PASCO          MOCLDY    57  52  83 CALM      29.88S                  
RICHLAND ARPT  MOSUNNY   58  50  72 CALM      29.88S                  
HERMISTON, OR  CLOUDY    58  55  90 S6        29.88R                  
$$

WAZ036>038-201200-
NORTHEAST WASHINGTON
  
CITY           SKY/WX    TMP DP  RH WIND       PRES   REMARKS
SPOKANE GEIGER PTCLDY    52  47  83 E6        29.92S                  
SPOKANE FELTS  CLEAR     48  46  93 CALM      29.92S                  
FAIRCHILD AFB  CLEAR     49  47  95 NE3       29.91S                  
COEURDALENE,ID CLEAR     47  44  90 E8        29.93S                  
DEER PARK      CLEAR     45  42  89 CALM      29.92F                  
$$

WAZ029>033-201200-
SOUTHEAST WASHINGTON
  
CITY           SKY/WX    TMP DP  RH WIND       PRES   REMARKS
PULLMAN        CLEAR     52  49  89 CALM      29.92S                  
LEWISTON, ID   PTCLDY    58  55  90 CALM      29.88S                  
WALLA WALLA    LGT RAIN  59  53  80 E8        29.88F                  
PENDLETON, OR  LGT RAIN  58  56  93 CALM      29.88R                  
$$